Total_Precipitation_Accumulation
0.11 0.16 0.45 0.62 0.65 0.57 0.48 0.41 0.38 0.38 0.37 0.34 0.32 0.30 0.27 0.26 0.25 0.25 0.27 0.28 0.31 0.37 0.45 0.48 0.53 0.65 0.62 0.44 0.31 0.21 0.18 0.16 0.14 0.14 0.13 0.16 0.21 0.23 0.19 0.17 0.19 0.26 0.35
0.11 0.19 0.45 0.65 0.75 0.70 0.59 0.51 0.43 0.39 0.37 0.39 0.39 0.38 0.35 0.30 0.30 0.32 0.36 0.37 0.41 0.47 0.51 0.55 0.57 0.61 0.57 0.42 0.25 0.14 0.10 0.08 0.06 0.04 0.04 0.05 0.12 0.18 0.14 0.12 0.16 0.27 0.33
0.14 0.24 0.45 0.67 0.81 0.79 0.72 0.63 0.54 0.50 0.45 0.46 0.49 0.49 0.47 0.42 0.40 0.41 0.44 0.46 0.49 0.50 0.51 0.57 0.55 0.53 0.46 0.37 0.25 0.15 0.10 0.08 0.06 0.03 0.04 0.06 0.13 0.18 0.16 0.16 0.22 0.30 0.35
0.20 0.29 0.45 0.68 0.87 0.87 0.82 0.73 0.67 0.70 0.63 0.58 0.58 0.59 0.58 0.53 0.51 0.52 0.51 0.51 0.51 0.49 0.48 0.48 0.40 0.36 0.28 0.24 0.22 0.18 0.12 0.09 0.06 0.04 0.06 0.08 0.14 0.26 0.27 0.26 0.29 0.33 0.34
0.33 0.40 0.59 0.78 0.93 0.98 0.88 0.86 0.82 0.85 0.82 0.76 0.69 0.70 0.71 0.69 0.63 0.58 0.53 0.53 0.48 0.46 0.42 0.39 0.31 0.23 0.19 0.16 0.15 0.16 0.12 0.09 0.05 0.05 0.05 0.08 0.14 0.29 0.28 0.26 0.26 0.27 0.34
0.47 0.54 0.73 0.90 1.02 1.06 0.95 0.91 0.92 0.93 0.95 0.91 0.79 0.77 0.80 0.81 0.73 0.60 0.54 0.50 0.45 0.40 0.37 0.32 0.27 0.21 0.17 0.16 0.15 0.14 0.12 0.08 0.05 0.04 0.06 0.09 0.12 0.24 0.24 0.22 0.23 0.25 0.30
0.68 0.75 0.89 1.09 1.25 1.28 1.18 1.10 1.04 1.00 0.99 1.00 0.91 0.84 0.86 0.91 0.89 0.70 0.55 0.46 0.40 0.37 0.32 0.28 0.24 0.22 0.19 0.17 0.18 0.15 0.11 0.07 0.05 0.05 0.07 0.10 0.15 0.27 0.25 0.23 0.24 0.26 0.27
0.88 0.96 1.11 1.33 1.41 1.48 1.39 1.27 1.22 1.15 1.06 1.04 1.05 1.00 0.96 0.98 1.00 0.81 0.59 0.48 0.43 0.37 0.32 0.30 0.26 0.22 0.20 0.18 0.18 0.15 0.11 0.07 0.05 0.04 0.06 0.08 0.15 0.25 0.27 0.26 0.25 0.26 0.26
1.16 1.27 1.32 1.44 1.54 1.68 1.51 1.32 1.28 1.26 1.19 1.12 1.11 1.09 1.01 1.00 0.96 0.82 0.61 0.52 0.48 0.42 0.35 0.32 0.31 0.27 0.23 0.21 0.19 0.16 0.11 0.07 0.04 0.04 0.04 0.07 0.12 0.22 0.28 0.30 0.30 0.31 0.30
1.46 1.56 1.55 1.54 1.61 1.77 1.71 1.45 1.28 1.18 1.16 1.19 1.15 1.01 0.84 0.81 0.86 0.80 0.56 0.50 0.48 0.43 0.36 0.34 0.33 0.31 0.27 0.21 0.18 0.16 0.13 0.12 0.07 0.05 0.06 0.07 0.14 0.22 0.25 0.29 0.31 0.34 0.34
1.78 1.82 1.81 1.73 1.65 1.74 1.77 1.55 1.43 1.30 1.24 1.22 1.18 0.97 0.83 0.84 0.83 0.75 0.53 0.40 0.44 0.41 0.36 0.35 0.38 0.36 0.31 0.23 0.18 0.14 0.12 0.12 0.10 0.08 0.08 0.09 0.16 0.24 0.29 0.30 0.29 0.32 0.33
1.88 1.94 1.99 1.87 1.81 1.83 1.84 1.72 1.64 1.49 1.37 1.29 1.19 1.07 0.97 0.90 0.89 0.77 0.63 0.42 0.41 0.41 0.40 0.40 0.39 0.42 0.35 0.26 0.21 0.18 0.14 0.12 0.13 0.10 0.08 0.11 0.21 0.26 0.31 0.32 0.29 0.30 0.31
2.08 2.13 2.19 2.05 2.01 1.97 1.93 1.78 1.69 1.53 1.44 1.39 1.36 1.18 1.12 1.06 0.98 0.96 0.82 0.67 0.57 0.44 0.45 0.42 0.42 0.38 0.33 0.29 0.27 0.22 0.18 0.17 0.16 0.12 0.09 0.12 0.22 0.30 0.37 0.40 0.36 0.34 0.37
2.32 2.41 2.39 2.31 2.24 2.14 2.05 1.87 1.67 1.53 1.40 1.32 1.31 1.30 1.24 1.18 1.07 0.96 0.86 0.72 0.65 0.53 0.47 0.44 0.39 0.34 0.31 0.33 0.33 0.28 0.23 0.19 0.16 0.14 0.12 0.12 0.18 0.29 0.37 0.42 0.43 0.44 0.49
2.58 2.61 2.64 2.55 2.40 2.21 2.14 2.04 1.75 1.53 1.34 1.26 1.26 1.26 1.24 1.14 1.05 0.99 0.90 0.83 0.74 0.62 0.54 0.50 0.44 0.38 0.35 0.35 0.34 0.28 0.26 0.24 0.21 0.19 0.17 0.15 0.15 0.24 0.36 0.41 0.44 0.49 0.53
2.77 2.86 2.92 2.78 2.58 2.26 2.07 2.07 1.89 1.65 1.44 1.33 1.23 1.19 1.23 1.19 1.13 1.11 0.93 0.89 0.85 0.77 0.71 0.65 0.57 0.52 0.46 0.43 0.38 0.34 0.32 0.30 0.29 0.29 0.26 0.22 0.17 0.18 0.27 0.40 0.55 0.64 0.68
2.85 3.04 3.11 3.07 2.85 2.46 2.16 2.06 1.94 1.77 1.64 1.50 1.24 1.15 1.17 1.24 1.28 1.30 1.07 0.96 0.90 0.88 0.89 0.84 0.76 0.72 0.62 0.52 0.44 0.42 0.37 0.32 0.28 0.29 0.28 0.26 0.23 0.20 0.20 0.32 0.49 0.61 0.68
2.90 3.04 3.11 3.13 3.04 2.74 2.37 2.20 2.05 1.85 1.75 1.66 1.46 1.30 1.19 1.23 1.38 1.48 1.22 1.06 0.99 0.98 0.97 0.91 0.82 0.77 0.67 0.61 0.51 0.45 0.40 0.35 0.31 0.29 0.27 0.25 0.24 0.21 0.19 0.22 0.32 0.47 0.57
2.74 2.97 3.21 3.15 3.08 2.97 2.71 2.50 2.33 2.10 1.93 1.80 1.58 1.40 1.38 1.35 1.42 1.57 1.32 1.13 1.09 1.04 0.97 0.97 0.92 0.85 0.73 0.65 0.60 0.53 0.47 0.42 0.36 0.33 0.29 0.25 0.24 0.23 0.21 0.20 0.21 0.27 0.38
2.53 2.83 3.03 3.30 3.25 3.27 3.17 2.89 2.64 2.43 2.17 1.96 1.70 1.49 1.46 1.45 1.44 1.57 1.47 1.25 1.20 1.17 1.02 0.95 0.95 0.98 0.95 0.83 0.75 0.67 0.59 0.53 0.47 0.40 0.35 0.29 0.24 0.22 0.22 0.20 0.20 0.21 0.26
2.27 2.58 2.74 2.97 3.18 3.22 3.13 2.82 2.53 2.34 2.28 2.15 1.89 1.67 1.64 1.59 1.49 1.53 1.56 1.41 1.24 1.21 1.14 1.04 0.99 0.98 1.03 1.09 1.05 0.89 0.73 0.63 0.54 0.46 0.42 0.36 0.30 0.26 0.24 0.25 0.27 0.28 0.29
1.99 2.19 2.49 2.58 2.88 2.92 2.82 2.76 2.61 2.53 2.46 2.37 2.21 1.93 1.78 1.74 1.64 1.55 1.53 1.49 1.33 1.23 1.26 1.27 1.19 1.12 1.06 1.10 1.16 1.13 0.96 0.82 0.63 0.49 0.46 0.44 0.39 0.36 0.33 0.31 0.31 0.34 0.35
1.71 2.01 2.14 2.26 2.50 2.75 2.79 2.90 2.98 2.91 2.66 2.40 2.26 2.18 2.01 1.90 1.83 1.69 1.60 1.60 1.50 1.33 1.23 1.28 1.34 1.33 1.31 1.30 1.26 1.36 1.24 0.96 0.74 0.56 0.47 0.46 0.45 0.44 0.41 0.39 0.38 0.40 0.42
1.37 1.73 2.05 2.23 2.36 2.56 2.86 2.85 2.74 2.60 2.40 2.14 2.14 2.22 2.21 2.10 1.99 1.84 1.77 1.75 1.67 1.52 1.38 1.38 1.40 1.47 1.52 1.49 1.45 1.35 1.25 1.07 1.01 0.80 0.55 0.47 0.45 0.41 0.42 0.43 0.41 0.39 0.41
1.12 1.45 1.77 2.03 2.32 2.52 2.65 2.69 2.72 2.51 2.32 2.27 2.20 2.20 2.12 2.03 1.97 1.91 1.85 1.90 1.83 1.70 1.63 1.64 1.61 1.60 1.62 1.61 1.55 1.47 1.41 1.26 1.12 1.06 0.81 0.60 0.56 0.51 0.45 0.43 0.43 0.46 0.48
0.93 1.15 1.47 1.75 1.92 2.17 2.42 2.47 2.48 2.47 2.43 2.38 2.19 2.10 2.08 2.06 2.00 1.90 1.90 1.94 1.95 1.89 1.79 1.76 1.77 1.77 1.77 1.74 1.70 1.57 1.49 1.42 1.26 1.24 1.12 0.86 0.79 0.70 0.62 0.55 0.52 0.52 0.54